KD0QNG Weather Reports


Display with metric or nautical units.
time (UTC)temp
F
wind
direction
speed
MPH
gust
MPH
rain 1hr
in
rain 24hr
in
rain mn
in
humidity
%
barometer
mb
20260510131849 57 40 1.0 1.0 0.00 0.00 0.00 60 1023.5
20260510130754 57 198 3.0 3.0 0.00 0.00 0.00 61 1023.0
20260510125906 57 42 2.0 3.0 0.00 0.00 0.00 63 1022.7
20260510124824 57 326 2.0 2.0 0.00 0.00 0.00 64 1022.0
20260510123916 57 5 2.0 3.0 0.00 0.00 0.00 65 1021.9
20260510122818 57 132 2.0 2.0 0.00 0.00 0.00 67 1022.0
20260510121933 57 349 2.0 2.0 0.00 0.00 0.00 67 1021.3
20260510120732 58 78 1.0 1.0 0.00 0.00 0.00 66 1021.1
20260510115843 58 53 2.0 2.0 0.00 0.00 0.00 66 1020.4
20260510114749 58 22 2.0 2.0 0.00 0.00 0.00 66 1019.8
20260510113858 58 42 3.0 5.0 0.00 0.00 0.00 67 1019.9
20260510112800 58 61 1.0 2.0 0.00 0.00 0.00 68 1019.5
20260510111911 58 35 3.0 3.0 0.00 0.00 0.00 69 1019.3
20260510110813 58 21 3.0 3.0 0.00 0.00 0.00 69 1018.9
20260510110048 58 50 1.0 1.0 0.00 0.00 0.00 70 1019.5
20260510104833 58 44 2.0 3.0 0.00 0.00 0.00 71 1019.3
20260510103842 58 35 4.0 6.0 0.00 0.00 0.00 72 1019.2
20260510102747 59 324 1.0 2.0 0.00 0.00 0.00 70 1019.0
20260510101859 59 53 2.0 2.0 0.00 0.00 0.00 68 1018.6
20260510100801 59 56 0.0 1.0 0.00 0.00 0.00 68 1018.3
20260510095952 60 202 1.0 2.0 0.00 0.00 0.00 67 1018.5
20260510094817 60 166 2.0 2.0 0.00 0.00 0.00 67 1018.0
20260510093932 60 41 0.0 1.0 0.00 0.00 0.00 67 1017.8
20260510092731 60 52 2.0 2.0 0.00 0.00 0.00 67 1018.1
20260510091842 60 0.0 0.0 0.00 0.00 0.00 68 1017.9
20260510090747 60 0.0 0.0 0.00 0.00 0.00 68 1017.5
20260510085939 60 140 0.0 1.0 0.00 0.00 0.00 68 1017.9
20260510084815 60 0.0 0.0 0.00 0.00 0.00 67 1017.6
20260510083910 60 0.0 0.0 0.00 0.00 0.00 66 1017.6
20260510082811 61 0.0 0.0 0.00 0.00 0.00 66 1017.5
20260510081923 61 130 0.0 1.0 0.00 0.00 0.00 67 1017.4
20260510080825 61 0.0 0.0 0.00 0.00 0.00 67 1017.3
20260510075555 61 0.0 0.0 0.00 0.00 0.00 67 1017.4
20260510074710 62 75 1.0 2.0 0.00 0.00 0.00 68 1017.3
20260510073612 62 0.0 0.0 0.00 0.00 0.00 67 1017.2
20260510072727 62 0.0 0.0 0.00 0.00 0.00 66 1016.9
20260510071632 62 0.0 0.0 0.00 0.00 0.00 65 1016.7
20260510070701 63 0.0 0.0 0.00 0.00 0.00 65 1016.6
20260510065542 63 0.0 0.0 0.00 0.00 0.00 66 1016.6
20260510064653 63 0.0 0.0 0.00 0.00 0.00 65 1016.1
20260510063636 63 0.0 0.0 0.00 0.00 0.00 66 1016.3
20260510062730 64 0.0 0.0 0.00 0.00 0.00 65 1016.2
20260510061632 64 0.0 0.0 0.00 0.00 0.00 65 1016.1
20260510060727 64 0.0 0.0 0.00 0.00 0.00 65 1015.7
20260510055632 65 135 0.0 1.0 0.00 0.00 0.00 64 1015.5
20260510054641 65 31 0.0 1.0 0.00 0.00 0.00 64 1015.6
20260510053543 65 109 2.0 2.0 0.00 0.00 0.00 63 1015.1
20260510052655 65 0.0 0.0 0.00 0.00 0.00 64 1015.1
20260510051557 65 0.0 0.0 0.00 0.00 0.00 64 1015.4
20260510050732 65 0.0 0.0 0.00 0.00 0.00 64 1015.3
20260510045606 65 0.0 0.0 0.00 0.00 0.00 66 1015.1
20260510044604 65 0.0 0.0 0.00 0.00 0.00 66 1015.3
20260510043603 65 0.0 0.0 0.00 0.00 0.00 67 1015.1
20260510042605 64 0.0 0.0 0.00 0.00 0.00 68 1015.0
20260510041604 64 0.0 0.0 0.00 0.00 0.00 67 1015.2
20260510040602 65 0.0 0.0 0.00 0.00 0.00 67 1014.6
20260510035603 65 0.0 0.0 0.00 0.00 0.00 66 1015.1
20260510034605 66 0.0 0.0 0.00 0.00 0.00 63 1015.1
20260510033603 66 0.0 0.0 0.00 0.00 0.00 63 1015.1
20260510032605 67 0.0 0.0 0.00 0.00 0.00 60 1014.6
20260510031607 68 0.0 0.0 0.00 0.00 0.00 59 1014.6
20260510030637 68 0.0 0.0 0.00 0.00 0.00 59 1014.2
20260510025558 69 0.0 0.0 0.00 0.00 0.00 57 1013.7
20260510024556 70 0.0 0.0 0.00 0.00 0.00 56 1013.3
20260510023554 70 0.0 0.0 0.00 0.00 0.00 55 1012.8
20260510022550 71 135 0.0 1.0 0.00 0.00 0.00 54 1012.0
20260510021607 71 87 2.0 3.0 0.00 0.00 0.00 54 1012.0
20260510020544 72 36 1.0 2.0 0.00 0.00 0.00 53 1013.0
20260510015546 73 63 1.0 3.0 0.00 0.00 0.00 52 1013.1
20260510014539 73 0.0 0.0 0.00 0.00 0.00 51 1013.5
20260510013540 73 0.0 0.0 0.00 0.00 0.00 49 1013.8
20260510012542 74 0.0 0.0 0.00 0.00 0.00 49 1013.2
20260510011539 74 0.0 0.0 0.00 0.00 0.00 48 1012.9
20260510010537 74 0.0 0.0 0.00 0.00 0.00 46 1012.5
20260510005510 75 0.0 0.0 0.00 0.00 0.00 46 1011.1
20260510004511 75 0.0 0.0 0.00 0.00 0.00 47 1010.6
20260510003512 74 0.0 0.0 0.00 0.00 0.00 54 1010.4
20260510002534 76 0.0 0.0 0.00 0.00 0.00 56 1010.0
20260510001509 77 0.0 0.0 0.00 0.00 0.00 52 1010.0
20260510000545 77 0.0 0.0 0.00 0.00 0.00 50 1009.8
20260509235504 78 0.0 0.0 0.00 0.00 0.00 53 1010.0
20260509234505 78 0.0 0.0 0.00 0.00 0.00 51 1010.0
20260509233504 78 0.0 0.0 0.00 0.00 0.00 44 1010.1
20260509232448 79 0.0 0.0 0.00 0.00 0.00 43 1010.0
20260509231438 80 0.0 0.0 0.00 0.00 0.00 42 1010.2
20260509230439 80 0.0 0.0 0.00 0.00 0.00 42 1010.4
20260509225437 79 0.0 0.0 0.00 0.00 0.00 43 1010.3
20260509224430 80 0.0 0.0 0.00 0.00 0.00 42 1010.4
20260509223443 81 0.0 0.0 0.00 0.00 0.00 36 1010.2
20260509222458 81 0.0 0.0 0.00 0.00 0.00 33 1010.2
20260509221416 82 0.0 0.0 0.00 0.00 0.00 35 1010.0
20260509220418 82 0.0 0.0 0.00 0.00 0.00 30 1010.3
20260509215420 83 179 2.0 3.0 0.00 0.00 0.00 31 1010.0
20260509202727 86 0.0 0.0 0.00 0.00 0.00 29 1010.6
20260509201713 84 0.0 0.0 0.00 0.00 0.00 29 1011.1
20260509200731 86 0.0 0.0 0.00 0.00 0.00 29 1011.1
20260509195732 85 0.0 0.0 0.00 0.00 0.00 27 1011.2
20260509194710 85 0.0 0.0 0.00 0.00 0.00 28 1011.3
20260509193708 84 0.0 0.0 0.00 0.00 0.00 31 1011.4
20260509192721 84 0.0 0.0 0.00 0.00 0.00 31 1011.5
20260509191650 84 235 3.0 3.0 0.00 0.00 0.00 32 1011.3
20260509190651 84 188 1.0 2.0 0.00 0.00 0.00 33 1011.5
20260509185653 84 232 3.0 3.0 0.00 0.00 0.00 30 1011.7
20260509184644 82 257 3.0 3.0 0.00 0.00 0.00 32 1011.9
20260509183638 82 296 4.0 5.0 0.00 0.00 0.00 31 1011.7
20260509182640 83 247 3.0 3.0 0.00 0.00 0.00 30 1012.1
20260509181627 84 219 4.0 6.0 0.00 0.00 0.00 31 1012.2
20260509180625 83 227 7.0 8.0 0.00 0.00 0.00 32 1012.2
20260509175619 84 265 7.0 8.0 0.00 0.00 0.00 33 1012.2
20260509174618 83 246 6.0 8.0 0.00 0.00 0.00 34 1012.7
20260509173626 82 259 6.0 7.0 0.00 0.00 0.00 36 1013.0
20260509172607 80 289 7.0 8.0 0.00 0.00 0.00 38 1013.1
20260509171552 79 306 3.0 3.0 0.00 0.00 0.00 39 1013.5
20260509170610 79 167 3.0 3.0 0.00 0.00 0.00 41 1013.3
20260509165538 79 299 8.0 8.0 0.00 0.00 0.00 39 1013.5
20260509164538 80 257 7.0 9.0 0.00 0.00 0.00 38 1013.5
20260509163557 79 294 5.0 6.0 0.00 0.00 0.00 39 1013.4
20260509162539 79 298 4.0 7.0 0.00 0.00 0.00 42 1013.6
20260509161538 78 279 4.0 5.0 0.00 0.00 0.00 45 1013.3
20260509160541 77 262 3.0 7.0 0.00 0.00 0.00 45 1013.0
20260509155517 77 242 4.0 6.0 0.00 0.00 0.00 44 1013.1
20260509154513 78 241 4.0 5.0 0.00 0.00 0.00 46 1013.1
20260509153534 76 232 4.0 5.0 0.00 0.00 0.00 48 1013.4
20260509152453 75 253 6.0 7.0 0.00 0.00 0.00 49 1013.3
20260509151451 74 227 6.0 9.0 0.00 0.00 0.00 48 1013.0
20260509150513 73 228 6.0 8.0 0.00 0.00 0.00 50 1013.2
20260509145451 72 228 3.0 3.0 0.00 0.00 0.00 53 1013.1
20260509144445 71 277 6.0 7.0 0.00 0.00 0.00 54 1013.0
20260509143446 71 224 4.0 5.0 0.00 0.00 0.00 55 1013.0
20260509142444 70 181 2.0 5.0 0.00 0.00 0.00 57 1013.1
20260509141445 69 220 3.0 3.0 0.00 0.00 0.00 60 1012.8
20260509140442 68 214 4.0 5.0 0.00 0.00 0.00 61 1012.7
20260509135438 66 221 6.0 7.0 0.00 0.00 0.00 63 1013.1
20260509134353 65 266 4.0 5.0 0.00 0.00 0.00 66 1013.2
20260509133332 64 260 4.0 5.0 0.00 0.00 0.00 68 1013.3